Regional Weather Roundup
Issued by NWS Charleston, SC

Current Version | Previous Version | Text Only | Print | Product List | Glossary Off
Versions: 1 2 3 4 5 6 7 8 9 10 11 12 13 14 15 16 17 18 19 20 21 22 23 24 25 26 27 28 29 30 31 32 33 34 35 36 37 38 39 40 41 42 43 44 45 46 47 48 49 50

000
ASUS42 KCHS 201926
RWRCHS

REGIONAL WEATHER ROUNDUP
NATIONAL WEATHER SERVICE CHARLESTON SC
300 PM EDT MON APR 20 2015

NOTE: "FAIR" INDICATES FEW OR NO CLOUDS BELOW 12,000 FEET WITH NO
SIGNIFICANT WEATHER AND/OR OBSTRUCTIONS TO VISIBILITY.

NOT ALL STATIONS ARE QUALITY CONTROLLED BY THE NATIONAL
WEATHER SERVICE. USE DATA WITH CAUTION...ESPECIALLY
DEWPOINT OBSERVATIONS.

SCZ027-030-031-034>040-042>050-202000-
...SOUTHEAST SOUTH CAROLINA...

CITY           SKY/WX    TMP DP  RH WIND       PRES   REMARKS
N CHARLESTON   CLOUDY    73  63  70 SW12      29.81F
WATERFRONT PRK   N/A     72 N/A N/A SW10        N/A
MOUNT PLEASANT FAIR      73  64  73 CALM      29.80F
PINOPOLIS      NOT AVBL
MONCKS CORNER  FAIR      75  64  69 SW6       29.78F
SUMMERVILLE    FAIR      73  66  78 S8        29.79F
BEAUFORT MCAS  CLOUDY    73  66  78 S3        29.81F
BEAUFORT ARPT  FAIR      72  68  88 S10       29.80F
HILTON HEAD IS CLOUDY    73  66  78 SW7       29.84F
WALTERBORO     CLOUDY    72  64  78 S10       29.80F
ALLENDALE      FAIR      73  66  78 VRB3      29.76F

...SOUTHERN MIDLANDS AND PEE DEE...

CITY           SKY/WX    TMP DP  RH WIND       PRES   REMARKS
GEORGETOWN     NOT AVBL
KINGSTREE      NOT AVBL
ORANGEBURG     CLOUDY    73  63  70 SW10      29.78F
BARNWELL       FAIR      73  66  78 SW6       29.78F
AIKEN          FAIR      70  61  73 SW15G23   29.79F
MANNING        FAIR      72  61  68 SW6       29.76F
COLUMBIA       CLOUDY    74  62  66 SW16      29.73F
SUMTER         PTSUNNY   74  65  73 S14       29.74F
FLORENCE       CLOUDY    76  63  64 S15       29.75F
MYRTLE BEACH   SUNNY     73  64  73 S14       29.82F
N MYRTLE BEACH CLOUDY    71  65  81 SW18G25   29.80F

$$

GAZ063-065-086>088-099>101-113>116-118-119-134>141-150-202000-
...SOUTHEAST GEORGIA...

CITY           SKY/WX    TMP DP  RH WIND       PRES   REMARKS
SAVANNAH ARPT  CLOUDY    73  64  73 S9        29.81F
HUNTER AAF     CLOUDY    73  68  84 SW8       29.81F
FORT STEWART   PTSUNNY   73  64  73 S8        29.86S
STATESBORO       N/A     72  67  83 S7        29.80F
SYLVANIA       CLOUDY    72  67  85 SW7       29.81S
CLAXTON        FAIR      72  68  88 CALM      29.82S

...CSRA...CENTRAL AND FAR SOUTHEAST GEORGIA...

CITY           SKY/WX    TMP DP  RH WIND       PRES   REMARKS
THOMSON        CLOUDY    73  68  85 S8G20     29.80F
AUGUSTA-BUSH   CLOUDY    71  65  81 SW9       29.77F
AUGUSTA-DANIEL CLOUDY    72  64  76 S14       29.78F
SWAINSBORO     NOT AVBL
VIDALIA        CLOUDY    72  68  88 SW9       29.80F
EASTMAN        FAIR      72  71  96 SW5       29.83F
HAZLEHURST     FAIR      73  63  69 SW3       29.80F
ALMA           CLOUDY    72  65  78 SW10      29.85S
WAYCROSS       LGT RAIN  76  68  77 W8        29.86S
JESUP          FAIR      77  70  78 SW8       29.84F
BAXLEY         CLOUDY    73  68  83 SW7       29.84S
BRUNSWICK      CLOUDY    73  66  78 SW12G23   29.86F
SAINT SIMONS   LGT RAIN  73  67  81 SW13G23   29.85F

$$

SCZ027-028-034-036>038-045-046-048>050-GAZ119-141-202000-
...LAKE AND SUPPLEMENTAL COASTAL OBSERVATIONS...

STATION/POSITION TIME  TEMP    WIND        PRES    WAVE   SWELL
                       AIR SEA DIR/SP/G            HT/PER HT/PER/DIR
                 (UTC) (F)     (DEG/KT/KT) (MB)    (FT/S) (FT/S/D)
UPR LAKE MARION  NOT AVBL
WINYAH BAY       1800   75     210/ 11     1009.0
LAKE MURRAY      1800   72     220/ 11/ 14 1007.8F
ACE BASIN NERRS  NOT AVBL
FORT PULASKI     1900   72 72  230/  8/ 15 1010.4F
SAPELO ISLAND    1900   74     210/ 10     1011.0S

$$

ANZ835-935-AMZ111-154-330-350-352-354-370-450-454-472-202000-
...C-MAN AND BUOY OBSERVATIONS...

STATION/POSITION TIME  TEMP    WIND        PRES    WAVE   SWELL
                       AIR SEA DIR/SP/G            HT/PER HT/PER/DIR
                 (UTC) (F)     (DEG/KT/KT) (MB)    (FT/S) (FT/S/D)
BUOY 41004       1850   70 74  230/ 16/ 19 1009.6F   4/ 5   2/ 9
BUOY 41008       1850   70 69  210/  8/ 10 1011.6S   2/ 9   2/ 80/ 9
FOLLY BEACH CMAN 1900   69     220/ 14/ 17 1009.6F
CAPERS NEARSHORE NOT AVBL
FRIPP NEARSHORE  NOT AVBL


STATION/POSITION TIME  TEMP    WIND        PRES    WAVE   SWELL
                       AIR SEA DIR/SP/G            HT/PER HT/PER/DIR
                 (UTC) (F)     (DEG/KT/KT) (MB)    (FT/S) (FT/S/D)
5E ST. MARYS GA  1821      71                N/A     2/12   2/100/12
FRYING PAN BUOY  1850   72 73  240/ 16/ 17 1010.7F   5/ 6   2/120/ 9
BUOY 41025       1850   71 73  220/ 19/ 23 1008.1    6/ 7   3/120/ 7
CAPE LOOKOUT NC  1900   71     220/ 14/ 17 1008.7S
BUOY 41002       1850   70 72  250/  8/ 12 1012.8F   4/ 5   3/190/ 5
BUOY 41010       1820   75 79  330/  4/  6 1013.0F
ST AUGUSTINE FL  1900   81 66  250/  8/ 10 1011.6F


$$



USA.gov is the U.S. government's official web portal to all federal, state and local government web resources and services.